TimeEST,TemperatureF,Dew PointF,Humidity,Sea Level PressureIn,VisibilityMPH,Wind Direction,Wind SpeedMPH,Gust SpeedMPH,PrecipitationIn,Events,Conditions,WindDirDegrees,DateUTC
12:18 AM,37.4,28.4,70,30.49,10.0,NW,5.8,-,N/A,,Clear,310,2012-11-14 05:18:00
12:39 AM,37.4,28.4,70,30.50,10.0,NW,4.6,-,N/A,,Clear,310,2012-11-14 05:39:00
1:00 AM,37.4,30.2,75,30.51,10.0,NW,4.6,-,N/A,,Clear,320,2012-11-14 06:00:00
1:21 AM,37.4,30.2,75,30.51,10.0,NW,4.6,-,N/A,,Clear,310,2012-11-14 06:21:00
1:42 AM,35.6,30.2,81,30.51,10.0,NW,3.5,-,N/A,,Mostly Cloudy,320,2012-11-14 06:42:00
2:03 AM,37.4,30.2,75,30.51,10.0,Calm,Calm,-,N/A,,Mostly Cloudy,0,2012-11-14 07:03:00
2:24 AM,35.6,30.2,81,30.52,10.0,Calm,Calm,-,N/A,,Mostly Cloudy,0,2012-11-14 07:24:00
3:06 AM,35.6,30.2,81,30.51,10.0,NW,3.5,-,N/A,,Scattered Clouds,320,2012-11-14 08:06:00
3:27 AM,35.6,30.2,81,30.51,10.0,Calm,Calm,-,N/A,,Scattered Clouds,0,2012-11-14 08:27:00
3:48 AM,33.8,30.2,87,30.52,10.0,Calm,Calm,-,N/A,,Clear,0,2012-11-14 08:48:00
4:12 AM,33.8,30.2,87,30.51,10.0,NW,3.5,-,N/A,,Clear,320,2012-11-14 09:12:00
4:33 AM,33.8,30.2,87,30.52,10.0,NW,3.5,-,N/A,,Clear,320,2012-11-14 09:33:00
5:45 AM,32.0,30.2,93,30.54,10.0,NNW,3.5,-,N/A,,Partly Cloudy,330,2012-11-14 10:45:00
6:45 AM,32.0,28.4,87,30.55,10.0,NW,4.6,-,N/A,,Partly Cloudy,320,2012-11-14 11:45:00
7:45 AM,35.6,30.2,81,30.56,10.0,NW,4.6,-,N/A,,Clear,320,2012-11-14 12:45:00
8:45 AM,41.0,28.4,61,30.50,10.0,NW,8.1,-,N/A,,Clear,320,2012-11-14 13:45:00
9:45 AM,42.8,37.4,81,30.56,10.0,North,4.6,-,N/A,,Partly Cloudy,350,2012-11-14 14:45:00
10:50 AM,44.6,26.6,49,30.55,10.0,NNW,5.8,-,N/A,,Partly Cloudy,330,2012-11-14 15:50:00
11:50 AM,46.4,28.4,50,30.53,10.0,North,5.8,-,N/A,,Partly Cloudy,350,2012-11-14 16:50:00
12:45 PM,46.4,28.4,50,30.51,10.0,Calm,Calm,-,N/A,,Clear,0,2012-11-14 17:45:00
1:45 PM,48.2,28.4,46,30.50,10.0,NNW,6.9,-,N/A,,Clear,340,2012-11-14 18:45:00
2:45 PM,48.2,28.4,46,30.48,10.0,Calm,Calm,-,N/A,,Clear,0,2012-11-14 19:45:00
3:45 PM,46.4,28.4,50,30.47,10.0,North,3.5,-,N/A,,Clear,360,2012-11-14 20:45:00
4:45 PM,46.4,28.4,50,30.48,10.0,NNW,3.5,-,N/A,,Mostly Cloudy,330,2012-11-14 21:45:00
5:45 PM,41.0,28.4,61,30.49,10.0,Calm,Calm,-,N/A,,Mostly Cloudy,0,2012-11-14 22:45:00
6:55 PM,37.4,30.2,75,30.48,10.0,Calm,Calm,-,N/A,,Mostly Cloudy,0,2012-11-14 23:55:00
7:45 PM,37.4,32.0,81,30.46,10.0,Calm,Calm,-,N/A,,Scattered Clouds,0,2012-11-15 00:45:00
8:45 PM,37.4,30.2,75,30.48,10.0,Calm,Calm,-,N/A,,Scattered Clouds,0,2012-11-15 01:45:00
9:12 PM,35.6,30.2,81,30.48,10.0,Calm,Calm,-,N/A,,Clear,0,2012-11-15 02:12:00
9:33 PM,35.6,32.0,87,30.48,10.0,Calm,Calm,-,N/A,,Clear,0,2012-11-15 02:33:00
9:45 PM,35.6,30.2,81,30.48,10.0,Calm,Calm,-,N/A,,Scattered Clouds,0,2012-11-15 02:45:00
9:54 PM,35.6,30.2,81,30.48,10.0,Calm,Calm,-,N/A,,Clear,0,2012-11-15 02:54:00
10:15 PM,33.8,30.2,87,30.49,10.0,Calm,Calm,-,N/A,,Clear,0,2012-11-15 03:15:00
10:36 PM,33.8,32.0,93,30.49,10.0,Calm,Calm,-,N/A,,Clear,0,2012-11-15 03:36:00
10:57 PM,33.8,32.0,93,30.49,10.0,Calm,Calm,-,N/A,,Clear,0,2012-11-15 03:57:00
11:18 PM,33.8,32.0,93,30.47,10.0,Calm,Calm,-,N/A,,Clear,0,2012-11-15 04:18:00
11:39 PM,33.8,32.0,93,30.46,10.0,Calm,Calm,-,N/A,,Clear,0,2012-11-15 04:39:00